Lid_Strength_Index
3 3 3 3 3 4 3 3 3 3 3 3 3 3 3 3 4 4 5 6 4 1 2 2 3 5 4 6 5 4 9 10 9 10 9 7 8 6 4 5 5 5 5 4 3
3 3 4 4 4 4 4 4 3 3 3 3 3 3 3 4 5 4 4 3 3 2 3 5 5 5 6 6 7 8 9 9 6 6 6 6 6 6 6 6 6 5 4 4 4
4 4 4 4 4 4 4 4 4 3 3 3 3 3 3 4 5 6 2 2 2 2 4 5 5 6 8 6 6 8 10 8 7 6 5 6 6 5 6 7 6 6 6 5 5
4 4 4 4 4 4 4 4 4 4 4 3 3 3 3 4 9 4 1 1 1 3 4 5 6 7 8 8 6 8 7 7 7 6 6 7 6 6 6 6 5 5 5 5 5
4 4 5 5 5 4 4 4 4 4 4 4 3 3 4 6 6 3 0 1 2 4 6 6 7 7 9 8 7 8 7 6 6 6 6 6 7 7 6 5 4 5 5 5 5
4 4 5 5 5 5 5 5 5 5 4 3 3 3 5 9 4 3 4 4 4 5 5 5 6 5 7 7 7 6 7 7 6 6 6 7 7 6 6 5 5 4 5 5 5
4 4 4 5 5 5 4 5 5 5 4 3 3 4 7 7 4 3 4 4 3 4 5 4 4 5 5 7 5 5 7 6 6 6 7 6 8 8 5 5 5 5 5 4 4
4 4 4 5 5 5 5 5 5 5 3 3 3 5 9 4 3 5 4 4 3 2 3 3 3 4 5 4 6 7 7 9 6 6 5 5 9 7 5 5 5 5 5 4 4
4 4 4 5 5 5 4 5 5 4 3 3 4 5 8 3 5 4 4 5 4 4 4 3 3 5 5 8 9 8 11 9 8 6 6 6 8 6 4 4 5 5 4 4 4
4 5 5 5 5 4 5 5 4 4 3 3 4 7 6 7 5 5 3 4 5 4 4 4 5 7 7 8 12 10 10 9 9 7 7 8 8 6 5 5 5 5 4 4 4
4 4 5 5 5 5 5 4 7 6 5 8 8 7 7 5 4 5 4 4 4 5 7 5 8 9 8 7 7 8 9 10 8 7 7 8 8 7 6 5 6 5 4 4 4
4 5 5 5 4 5 5 6 7 7 10 7 7 6 5 5 7 5 3 6 6 8 6 7 9 7 6 6 7 8 9 10 8 7 7 8 8 6 6 6 5 5 5 4 4
5 5 5 5 5 5 4 5 4 5 10 8 7 7 6 5 7 6 4 5 6 7 7 9 8 6 7 7 9 9 10 9 10 8 7 8 10 8 6 5 5 4 4 4 4
5 5 5 5 5 4 5 5 4 5 11 9 8 7 6 5 7 4 3 5 6 7 7 8 6 7 7 8 8 10 7 9 10 11 14 8 15 9 7 7 6 5 5 4 4
5 5 5 5 4 4 6 5 5 5 16 9 8 5 6 7 6 5 2 4 7 7 7 9 8 8 9 8 7 9 7 9 10 14 14 13 12 10 8 8 7 6 5 4 4
5 5 5 4 3 5 5 4 4 10 14 9 7 7 8 6 6 4 4 3 4 7 7 7 5 6 7 6 6 6 8 9 10 11 15 11 12 11 10 8 7 6 5 4 4
5 6 6 4 7 5 4 5 10 12 8 10 10 9 9 8 6 6 7 7 9 13 12 9 8 6 6 8 7 7 10 17 17 17 18 11 13 11 9 7 6 6 5 4 4
6 7 3 3 4 4 5 8 13 10 11 9 10 9 9 7 7 7 7 9 7 8 11 14 15 8 6 8 9 9 11 17 20 17 15 10 13 11 7 6 6 5 5 4 4
7 2 2 4 4 3 6 11 12 12 11 11 10 11 10 8 8 8 9 9 8 7 12 13 13 7 7 6 7 9 12 8 12 12 16 13 10 8 7 7 6 6 5 5 4
6 4 3 4 3 4 8 12 11 9 9 9 12 10 12 10 9 9 10 7 9 7 7 10 16 9 7 6 6 8 7 13 13 19 20 14 13 13 10 9 8 7 7 5 4
5 5 3 2 3 7 10 11 9 8 7 9 10 10 10 10 10 11 11 9 8 8 7 9 12 12 9 10 11 10 11 10 11 14 18 19 15 8 9 8 8 8 7 7 4
5 7 2 3 8 8 10 9 9 8 6 7 8 9 10 10 11 11 12 10 8 8 11 9 12 15 12 8 7 8 10 10 17 18 16 17 17 7 7 7 7 9 7 6 5
5 5 2 3 11 11 9 8 7 8 7 7 8 8 8 11 14 10 10 8 8 9 10 10 13 17 14 10 10 13 11 11 11 13 17 19 16 7 6 7 7 7 6 6 5
5 8 5 5 6 9 10 9 9 6 7 6 7 7 9 11 10 11 11 9 8 9 7 9 14 15 18 14 11 13 12 10 13 17 15 14 13 10 8 8 7 7 6 6 5
4 7 6 10 10 9 9 9 10 9 6 5 7 8 9 14 12 12 10 10 9 8 9 10 15 13 13 12 12 13 13 13 14 14 17 15 14 10 9 8 8 7 6 6 5
6 7 7 8 7 8 9 9 10 9 8 8 8 8 8 11 10 13 11 11 12 10 10 10 14 13 14 12 12 14 12 13 13 13 13 12 12 8 7 6 7 7 6 6 5
3 4 6 8 8 10 10 10 9 8 7 6 6 8 9 8 7 7 7 7 8 11 11 13 14 15 17 13 12 16 14 13 13 12 12 15 12 9 9 9 8 7 7 7 5